New Bern, NC

8:13 AM EDT on August 17, 2017 (GMT -0400)
Craven County Regional

Weather History for KEWN - April, 2012

Change the Weather History Date:

Sunday, April 1, 2012

  Actual Average Record
Temperature  
Mean Temperature 60 °F 58 °F  
Max Temperature 68 °F 70 °F 90 °F (1974)
Min Temperature 52 °F 46 °F 30 °F (1950)
Degree Days  
Heating Degree Days 5 8  
Month to date heating degree days 5 8  
Since 1 July heating degree days 1961 2523  
Cooling Degree Days 0 1  
Month to date cooling degree days 0 1  
Year to date cooling degree days 58 15  
Growing Degree Days 8 (Base 50)    
Moisture  
Dew Point 51 °F    
Average Humidity 73    
Maximum Humidity 90    
Minimum Humidity 56    
Precipitation  
Precipitation 0.51 in 0.12 in 2.16 in (1973)
Month to date precipitation 0.51 0.12  
Year to date precipitation 8.29 12.19  
Snow  
Snow 0.00 in - - ()
Month to date snowfall 0.0  
Since 1 July snowfall T  
Snow Depth 0.00 in    
Sea Level Pressure  
Sea Level Pressure 29.83 in    
Wind  
Wind Speed 7 mph (NE)    
Max Wind Speed 28 mph    
Max Gust Speed 33 mph    
Visibility 9 miles    
Events Rain , Thunderstorm    
T = Trace of Precipitation, MM = Missing Value Source: NWS Daily Summary

Daily Weather History Graph

Daily Weather History Graph

Search for Another Location

Airport or City:

Trip Planner

Search our weather history database for the weather conditions in past years. The results will help you decide how hot, cold, wet, or windy it might be!

Date:

Astronomy

Apr. 01, 2012 Rise Set
Actual Time 6:54 AM EDT 7:29 PM EDT
Civil Twilight 6:28 AM EDT 7:55 PM EDT
Nautical Twilight 5:58 AM EDT 8:25 PM EDT
Astronomical Twilight 5:28 AM EDT 8:56 PM EDT
Moon 2:10 PM EDT (4/1) 3:16 AM EDT (4/1)
Length of Visible Light 13h 26m
Length of Day
12h 35m
Waxing Gibbous, 69% of the Moon is Illuminated
Apr 1
Waxing Gibbous
Apr 6
Full
Apr 13
Last Quarter
Apr 21
New
Apr 29
First Quarter

Hourly Weather History & Observations

Time (EDT) Temp. Dew Point Humidity Pressure Visibility Wind Dir Wind Speed Gust Speed Precip Events Conditions
12:54 AM 61.0 °F 57.0 °F 87% 29.81 in 10.0 mi North 13.8 mph - N/A   Mostly Cloudy
1:07 AM 57.2 °F 55.4 °F 94% 29.80 in 5.0 mi NE 27.6 mph 33.4 mph 0.07 in Rain Rain
1:14 AM 57.2 °F 55.4 °F 94% 29.80 in 10.0 mi NE 23.0 mph 33.4 mph 0.07 in Rain , Thunderstorm Light Rain
1:29 AM 57.2 °F 55.4 °F 94% 29.80 in 2.5 mi ENE 13.8 mph - 0.24 in Rain , Thunderstorm Heavy Thunderstorms and Rain
1:46 AM 57.2 °F 53.6 °F 88% 29.78 in 5.0 mi ENE 10.4 mph - 0.33 in Rain Light Rain
1:54 AM 57.2 °F 55.4 °F 94% 29.77 in 10.0 mi East 10.4 mph - N/A Rain Light Rain
2:12 AM 57.2 °F 53.6 °F 88% 29.78 in 10.0 mi East 6.9 mph - 0.00 in Rain Light Rain
2:19 AM 55.4 °F 53.6 °F 94% 29.78 in 10.0 mi ENE 9.2 mph - 0.01 in Rain , Thunderstorm Light Rain
2:30 AM 55.4 °F 53.6 °F 94% 29.78 in 10.0 mi ENE 9.2 mph - 0.01 in Thunderstorm Overcast
2:54 AM 55.9 °F 54.0 °F 93% 29.82 in 2.0 mi Variable 4.6 mph - 0.10 in Rain , Thunderstorm Heavy Thunderstorms and Rain
3:10 AM 55.4 °F 53.6 °F 94% 29.82 in 4.0 mi North 11.5 mph - 0.07 in Rain , Thunderstorm Heavy Thunderstorms and Rain
3:34 AM 55.4 °F 53.6 °F 94% 29.78 in 10.0 mi ENE 13.8 mph 20.7 mph 0.09 in Rain Light Rain
3:41 AM 55.4 °F 53.6 °F 94% 29.78 in 10.0 mi ENE 10.4 mph 19.6 mph 0.09 in   Overcast
3:54 AM 53.6 °F 51.8 °F 94% 29.78 in 10.0 mi NE 11.5 mph - N/A Rain Light Rain
4:54 AM 53.1 °F 50.0 °F 89% 29.81 in 9.0 mi North 11.5 mph - 0.00 in   Overcast
5:54 AM 52.0 °F 48.9 °F 89% 29.83 in 10.0 mi NNE 11.5 mph - N/A   Overcast
6:24 AM 51.8 °F 48.2 °F 88% 29.85 in 10.0 mi North 11.5 mph 18.4 mph N/A   Overcast
6:54 AM 52.0 °F 48.0 °F 86% 29.87 in 10.0 mi NNE 12.7 mph - N/A   Overcast
7:16 AM 51.8 °F 46.4 °F 82% 29.87 in 10.0 mi NE 15.0 mph - N/A   Overcast
7:54 AM 52.0 °F 48.0 °F 86% 29.88 in 10.0 mi NNE 6.9 mph - N/A   Overcast
8:54 AM 53.1 °F 48.9 °F 86% 29.90 in 10.0 mi NNE 8.1 mph - N/A   Overcast
9:54 AM 54.0 °F 46.9 °F 77% 29.92 in 10.0 mi North 9.2 mph - N/A   Overcast
10:54 AM 54.0 °F 48.0 °F 80% 29.94 in 10.0 mi NE 8.1 mph - N/A   Overcast
11:54 AM 57.0 °F 48.9 °F 74% 29.93 in 10.0 mi North 8.1 mph - N/A   Overcast
12:54 PM 60.8 °F 50.0 °F 68% 29.89 in 10.0 mi NNE 4.6 mph - N/A   Mostly Cloudy
1:02 PM 60.8 °F 48.2 °F 63% 29.89 in 10.0 mi North 4.6 mph - N/A   Scattered Clouds
1:54 PM 61.0 °F 48.9 °F 64% 29.87 in 10.0 mi Calm Calm - N/A   Scattered Clouds
2:54 PM 64.0 °F 50.0 °F 60% 29.85 in 10.0 mi Variable 3.5 mph - N/A   Partly Cloudy
3:54 PM 66.2 °F 50.0 °F 56% 29.83 in 10.0 mi Calm Calm - N/A   Scattered Clouds
4:54 PM 66.2 °F 50.0 °F 56% 29.81 in 10.0 mi SW 4.6 mph - N/A   Partly Cloudy
5:54 PM 66.0 °F 50.0 °F 56% 29.80 in 10.0 mi WSW 6.9 mph - N/A   Clear
6:54 PM 63.0 °F 51.1 °F 65% 29.81 in 10.0 mi West 4.6 mph - N/A   Clear
7:54 PM 57.9 °F 51.1 °F 78% 29.81 in 10.0 mi South 6.9 mph - N/A   Clear
8:54 PM 57.9 °F 53.1 °F 84% 29.81 in 10.0 mi SSW 5.8 mph - N/A   Clear
9:54 PM 57.0 °F 53.1 °F 87% 29.79 in 10.0 mi SSW 6.9 mph - N/A   Clear
10:54 PM 57.0 °F 53.1 °F 87% 29.77 in 10.0 mi SSW 8.1 mph - N/A   Clear
11:54 PM 57.0 °F 54.0 °F 89% 29.74 in 10.0 mi SSW 9.2 mph - N/A   Clear